Time,TemperatureF,DewpointF,PressureIn,WindDirection,WindDirectionDegrees,WindSpeedMPH,WindSpeedGustMPH,Humidity,HourlyPrecipIn,Conditions,Clouds,dailyrainin,SoftwareType,DateUTC
2013-02-24 00:00:00,41.9,42.0,29.57,SW,225,1.4,2.8,100,0.00,,,0.00,Rainwise IP-100,2013-02-24 05:00:00,
2013-02-24 00:01:00,41.9,42.0,29.57,SW,225,0.0,2.8,100,0.00,,,0.00,Rainwise IP-100,2013-02-24 05:01:00,
2013-02-24 00:03:00,41.8,42.0,29.57,SW,225,0.0,2.8,100,0.00,,,0.00,Rainwise IP-100,2013-02-24 05:03:00,
2013-02-24 00:08:00,41.8,42.0,29.58,SSW,202,0.0,3.5,100,0.00,,,0.00,Rainwise IP-100,2013-02-24 05:08:00,
2013-02-24 00:11:00,41.8,42.0,29.57,SSW,202,0.0,3.5,100,0.00,,,0.00,Rainwise IP-100,2013-02-24 05:11:00,
2013-02-24 00:17:00,41.8,42.0,29.58,SSW,202,0.0,0.0,100,0.00,,,0.00,Rainwise IP-100,2013-02-24 05:17:00,
2013-02-24 00:23:00,41.7,42.0,29.58,SSW,202,0.0,0.0,100,0.00,,,0.00,Rainwise IP-100,2013-02-24 05:23:00,
2013-02-24 00:28:00,41.6,42.0,29.58,SSW,202,0.0,1.6,100,0.00,,,0.00,Rainwise IP-100,2013-02-24 05:28:00,
2013-02-24 00:33:00,41.6,42.0,29.58,SW,225,0.0,3.0,100,0.00,,,0.00,Rainwise IP-100,2013-02-24 05:33:00,
2013-02-24 00:38:00,41.6,42.0,29.58,WSW,247,0.0,2.1,100,0.00,,,0.00,Rainwise IP-100,2013-02-24 05:38:00,
2013-02-24 00:43:00,41.6,42.0,29.58,WSW,247,0.0,1.4,100,0.00,,,0.00,Rainwise IP-100,2013-02-24 05:43:00,
2013-02-24 00:48:00,41.5,42.0,29.58,WSW,247,1.2,1.9,100,0.00,,,0.00,Rainwise IP-100,2013-02-24 05:48:00,
2013-02-24 00:53:00,41.5,42.0,29.59,West,270,0.0,3.0,100,0.00,,,0.00,Rainwise IP-100,2013-02-24 05:53:00,
2013-02-24 00:58:00,41.5,42.0,29.59,SSW,202,0.0,1.9,100,0.00,,,0.00,Rainwise IP-100,2013-02-24 05:58:00,
2013-02-24 01:03:00,41.5,42.0,29.59,WSW,247,0.0,1.6,100,0.00,,,0.00,Rainwise IP-100,2013-02-24 06:03:00,
2013-02-24 01:08:00,41.5,42.0,29.59,SW,225,0.0,3.3,100,0.00,,,0.00,Rainwise IP-100,2013-02-24 06:08:00,
2013-02-24 01:13:00,41.4,41.0,29.59,WSW,247,1.4,2.1,100,0.00,,,0.00,Rainwise IP-100,2013-02-24 06:13:00,
2013-02-24 01:18:00,41.3,41.0,29.59,WSW,247,0.0,2.1,100,0.00,,,0.00,Rainwise IP-100,2013-02-24 06:18:00,
2013-02-24 01:24:00,41.3,41.0,29.59,WSW,247,0.0,2.1,100,0.00,,,0.00,Rainwise IP-100,2013-02-24 06:24:00,
2013-02-24 01:29:00,41.3,41.0,29.59,SSW,202,0.0,1.2,100,0.00,,,0.00,Rainwise IP-100,2013-02-24 06:29:00,
2013-02-24 01:34:00,41.2,41.0,29.59,West,270,0.0,1.6,100,0.00,,,0.00,Rainwise IP-100,2013-02-24 06:34:00,
2013-02-24 01:39:00,41.1,41.0,29.59,WSW,247,0.0,2.1,100,0.00,,,0.00,Rainwise IP-100,2013-02-24 06:39:00,
2013-02-24 01:44:00,41.1,41.0,29.58,WSW,247,0.0,2.1,100,0.00,,,0.00,Rainwise IP-100,2013-02-24 06:44:00,
2013-02-24 01:49:00,41.0,41.0,29.58,WSW,247,1.4,1.4,100,0.00,,,0.00,Rainwise IP-100,2013-02-24 06:49:00,
2013-02-24 01:54:00,41.0,41.0,29.58,WSW,247,0.0,1.9,100,0.00,,,0.00,Rainwise IP-100,2013-02-24 06:54:00,
2013-02-24 01:59:00,41.0,41.0,29.58,WSW,247,0.0,2.6,100,0.00,,,0.00,Rainwise IP-100,2013-02-24 06:59:00,
2013-02-24 02:04:00,40.9,41.0,29.58,WSW,247,1.4,3.7,100,0.00,,,0.00,Rainwise IP-100,2013-02-24 07:04:00,
2013-02-24 02:09:00,40.8,41.0,29.58,SW,225,0.0,2.3,100,0.00,,,0.00,Rainwise IP-100,2013-02-24 07:09:00,
2013-02-24 02:14:00,40.7,41.0,29.58,WSW,247,0.0,0.0,100,0.00,,,0.00,Rainwise IP-100,2013-02-24 07:14:00,
2013-02-24 02:20:00,40.6,41.0,29.58,WSW,247,0.0,1.4,100,0.00,,,0.00,Rainwise IP-100,2013-02-24 07:20:00,
2013-02-24 02:25:00,40.4,40.0,29.58,SW,225,0.0,2.1,99,0.00,,,0.00,Rainwise IP-100,2013-02-24 07:25:00,
2013-02-24 02:30:00,40.4,40.0,29.58,SW,225,0.0,2.6,99,0.00,,,0.00,Rainwise IP-100,2013-02-24 07:30:00,
2013-02-24 02:35:00,40.4,40.0,29.57,SW,225,0.0,1.9,99,0.00,,,0.00,Rainwise IP-100,2013-02-24 07:35:00,
2013-02-24 02:40:00,40.3,40.0,29.57,SW,225,0.0,1.9,99,0.00,,,0.00,Rainwise IP-100,2013-02-24 07:40:00,
2013-02-24 02:45:00,40.2,40.0,29.57,WSW,247,0.0,1.9,99,0.00,,,0.00,Rainwise IP-100,2013-02-24 07:45:00,
2013-02-24 02:50:00,40.2,40.0,29.57,WSW,247,0.0,1.6,99,0.00,,,0.00,Rainwise IP-100,2013-02-24 07:50:00,
2013-02-24 02:55:00,40.2,40.0,29.57,WSW,247,0.0,1.2,99,0.00,,,0.00,Rainwise IP-100,2013-02-24 07:55:00,
2013-02-24 03:00:00,40.1,40.0,29.56,WSW,247,0.0,1.6,99,0.00,,,0.00,Rainwise IP-100,2013-02-24 08:00:00,
2013-02-24 03:05:00,40.1,40.0,29.56,WSW,247,0.0,2.6,99,0.00,,,0.00,Rainwise IP-100,2013-02-24 08:05:00,
2013-02-24 03:10:00,40.1,40.0,29.57,WSW,247,0.0,2.8,99,0.00,,,0.00,Rainwise IP-100,2013-02-24 08:10:00,
2013-02-24 03:15:00,40.2,40.0,29.56,WSW,247,0.0,2.8,99,0.00,,,0.00,Rainwise IP-100,2013-02-24 08:15:00,
2013-02-24 03:21:00,40.2,40.0,29.56,SW,225,0.0,2.3,99,0.00,,,0.00,Rainwise IP-100,2013-02-24 08:21:00,
2013-02-24 03:26:00,40.2,40.0,29.56,SW,225,1.2,1.4,99,0.00,,,0.00,Rainwise IP-100,2013-02-24 08:26:00,
2013-02-24 03:31:00,40.2,40.0,29.56,SW,225,0.0,1.4,99,0.00,,,0.00,Rainwise IP-100,2013-02-24 08:31:00,
2013-02-24 03:36:00,40.2,40.0,29.56,SW,225,0.0,0.0,99,0.00,,,0.00,Rainwise IP-100,2013-02-24 08:36:00,
2013-02-24 03:41:00,40.2,40.0,29.56,SW,225,1.2,1.2,99,0.00,,,0.00,Rainwise IP-100,2013-02-24 08:41:00,
2013-02-24 03:46:00,40.2,40.0,29.56,WSW,247,0.0,1.6,99,0.00,,,0.00,Rainwise IP-100,2013-02-24 08:46:00,
2013-02-24 03:51:00,40.2,40.0,29.55,WSW,247,0.0,0.0,99,0.00,,,0.00,Rainwise IP-100,2013-02-24 08:51:00,
2013-02-24 03:56:00,40.2,40.0,29.54,WSW,247,1.2,1.2,99,0.00,,,0.00,Rainwise IP-100,2013-02-24 08:56:00,
2013-02-24 04:01:00,40.2,40.0,29.55,SW,225,2.3,2.3,99,0.00,,,0.00,Rainwise IP-100,2013-02-24 09:01:00,
2013-02-24 04:06:00,40.3,40.0,29.56,SW,225,0.0,2.3,99,0.00,,,0.00,Rainwise IP-100,2013-02-24 09:06:00,
2013-02-24 04:11:00,40.3,40.0,29.56,SW,225,1.6,2.3,100,0.00,,,0.00,Rainwise IP-100,2013-02-24 09:11:00,
2013-02-24 04:16:00,40.4,40.0,29.56,WSW,247,1.2,2.1,100,0.00,,,0.00,Rainwise IP-100,2013-02-24 09:16:00,
2013-02-24 04:22:00,40.4,40.0,29.56,WSW,247,1.2,2.3,100,0.00,,,0.00,Rainwise IP-100,2013-02-24 09:22:00,
2013-02-24 04:27:00,40.4,40.0,29.56,SW,225,0.0,2.3,100,0.00,,,0.00,Rainwise IP-100,2013-02-24 09:27:00,
2013-02-24 04:32:00,40.4,40.0,29.56,SW,225,0.0,1.6,100,0.00,,,0.00,Rainwise IP-100,2013-02-24 09:32:00,
2013-02-24 04:37:00,40.4,40.0,29.56,SW,225,0.0,2.6,100,0.00,,,0.00,Rainwise IP-100,2013-02-24 09:37:00,
2013-02-24 04:42:00,40.4,40.0,29.56,West,270,0.0,1.2,100,0.00,,,0.00,Rainwise IP-100,2013-02-24 09:42:00,
2013-02-24 04:47:00,40.4,40.0,29.56,West,270,0.0,0.0,100,0.00,,,0.00,Rainwise IP-100,2013-02-24 09:47:00,
2013-02-24 04:52:00,40.4,40.0,29.57,SW,225,0.0,2.1,100,0.00,,,0.00,Rainwise IP-100,2013-02-24 09:52:00,
2013-02-24 04:57:00,40.4,40.0,29.57,SW,225,0.0,2.6,100,0.00,,,0.00,Rainwise IP-100,2013-02-24 09:57:00,
2013-02-24 05:02:00,40.4,40.0,29.57,WSW,247,0.0,1.9,100,0.00,,,0.00,Rainwise IP-100,2013-02-24 10:02:00,
2013-02-24 05:07:00,40.4,40.0,29.57,SW,225,0.0,3.5,100,0.00,,,0.00,Rainwise IP-100,2013-02-24 10:07:00,
2013-02-24 05:12:00,40.4,40.0,29.58,WSW,247,0.0,2.1,100,0.00,,,0.00,Rainwise IP-100,2013-02-24 10:12:00,
2013-02-24 05:17:00,40.4,40.0,29.58,WSW,247,1.4,3.3,100,0.00,,,0.00,Rainwise IP-100,2013-02-24 10:17:00,
2013-02-24 05:23:00,40.4,40.0,29.58,WSW,247,0.0,2.6,100,0.00,,,0.00,Rainwise IP-100,2013-02-24 10:23:00,
2013-02-24 05:28:00,40.4,40.0,29.57,WSW,247,0.0,1.9,100,0.00,,,0.00,Rainwise IP-100,2013-02-24 10:28:00,
2013-02-24 05:33:00,40.4,40.0,29.57,WSW,247,1.4,4.4,100,0.00,,,0.00,Rainwise IP-100,2013-02-24 10:33:00,
2013-02-24 05:38:00,40.4,40.0,29.58,WSW,247,0.0,3.0,100,0.00,,,0.00,Rainwise IP-100,2013-02-24 10:38:00,
2013-02-24 05:43:00,40.4,40.0,29.58,WSW,247,1.4,2.1,100,0.00,,,0.00,Rainwise IP-100,2013-02-24 10:43:00,
2013-02-24 05:48:00,40.3,40.0,29.58,WSW,247,0.0,1.9,100,0.00,,,0.00,Rainwise IP-100,2013-02-24 10:48:00,
2013-02-24 05:53:00,40.3,40.0,29.58,SW,225,1.9,3.5,100,0.00,,,0.00,Rainwise IP-100,2013-02-24 10:53:00,
2013-02-24 05:58:00,40.4,40.0,29.58,SW,225,0.0,1.9,100,0.00,,,0.00,Rainwise IP-100,2013-02-24 10:58:00,
2013-02-24 06:03:00,40.4,40.0,29.58,SW,225,1.2,3.7,100,0.00,,,0.00,Rainwise IP-100,2013-02-24 11:03:00,
2013-02-24 06:08:00,40.4,40.0,29.58,SW,225,1.2,1.2,100,0.00,,,0.00,Rainwise IP-100,2013-02-24 11:08:00,
2013-02-24 06:13:00,40.4,40.0,29.58,SW,225,1.2,1.6,100,0.00,,,0.00,Rainwise IP-100,2013-02-24 11:13:00,
2013-02-24 06:18:00,40.4,40.0,29.59,WSW,247,1.6,1.9,100,0.00,,,0.00,Rainwise IP-100,2013-02-24 11:18:00,
2013-02-24 06:24:00,40.4,40.0,29.59,WSW,247,0.0,2.3,100,0.00,,,0.00,Rainwise IP-100,2013-02-24 11:24:00,
2013-02-24 06:29:00,40.4,40.0,29.59,SW,225,0.0,1.2,99,0.00,,,0.00,Rainwise IP-100,2013-02-24 11:29:00,
2013-02-24 06:34:00,40.4,40.0,29.59,SW,225,0.0,1.4,99,0.00,,,0.00,Rainwise IP-100,2013-02-24 11:34:00,
2013-02-24 06:39:00,40.4,40.0,29.59,WSW,247,0.0,1.9,99,0.00,,,0.00,Rainwise IP-100,2013-02-24 11:39:00,
2013-02-24 06:44:00,40.4,40.0,29.59,WSW,247,0.0,1.9,99,0.00,,,0.00,Rainwise IP-100,2013-02-24 11:44:00,
2013-02-24 06:49:00,40.4,40.0,29.59,SW,225,0.0,2.6,99,0.00,,,0.00,Rainwise IP-100,2013-02-24 11:49:00,
2013-02-24 06:54:00,40.3,40.0,29.60,WSW,247,0.0,1.4,99,0.00,,,0.00,Rainwise IP-100,2013-02-24 11:54:00,
2013-02-24 06:59:00,40.2,40.0,29.60,WSW,247,0.0,1.6,99,0.00,,,0.00,Rainwise IP-100,2013-02-24 11:59:00,
2013-02-24 07:04:00,40.1,40.0,29.60,SW,225,0.0,2.1,99,0.00,,,0.00,Rainwise IP-100,2013-02-24 12:04:00,
2013-02-24 07:09:00,39.9,40.0,29.60,SW,225,0.0,0.0,99,0.00,,,0.00,Rainwise IP-100,2013-02-24 12:09:00,
2013-02-24 07:14:00,39.6,40.0,29.60,SW,225,0.0,2.1,99,0.00,,,0.00,Rainwise IP-100,2013-02-24 12:14:00,
2013-02-24 07:19:00,39.4,39.0,29.60,SW,225,0.0,0.0,99,0.00,,,0.00,Rainwise IP-100,2013-02-24 12:19:00,
2013-02-24 07:25:00,39.2,39.0,29.61,SW,225,0.0,0.0,99,0.00,,,0.00,Rainwise IP-100,2013-02-24 12:25:00,
2013-02-24 07:30:00,39.0,39.0,29.60,SW,225,0.0,0.0,99,0.00,,,0.00,Rainwise IP-100,2013-02-24 12:30:00,
2013-02-24 07:36:00,38.7,39.0,29.60,SW,225,0.0,0.0,99,0.00,,,0.00,Rainwise IP-100,2013-02-24 12:36:00,
2013-02-24 07:42:00,38.5,39.0,29.60,SW,225,0.0,0.0,99,0.00,,,0.00,Rainwise IP-100,2013-02-24 12:42:00,
2013-02-24 07:47:00,38.4,38.0,29.60,SW,225,0.0,0.0,99,0.00,,,0.00,Rainwise IP-100,2013-02-24 12:47:00,
2013-02-24 07:52:00,38.5,39.0,29.60,SSW,202,0.0,0.0,99,0.00,,,0.00,Rainwise IP-100,2013-02-24 12:52:00,
2013-02-24 07:57:00,38.7,39.0,29.60,SSW,202,0.0,0.0,100,0.00,,,0.00,Rainwise IP-100,2013-02-24 12:57:00,
2013-02-24 08:02:00,39.0,39.0,29.61,SSW,202,0.0,0.0,100,0.00,,,0.00,Rainwise IP-100,2013-02-24 13:02:00,
2013-02-24 08:07:00,39.2,39.0,29.60,SSW,202,0.0,0.0,100,0.00,,,0.00,Rainwise IP-100,2013-02-24 13:07:00,
2013-02-24 08:12:00,39.5,40.0,29.61,SSW,202,0.0,0.0,100,0.00,,,0.00,Rainwise IP-100,2013-02-24 13:12:00,
2013-02-24 08:17:00,39.8,40.0,29.60,SSW,202,0.0,0.0,100,0.00,,,0.00,Rainwise IP-100,2013-02-24 13:17:00,
2013-02-24 08:22:00,40.0,40.0,29.61,SSW,202,0.0,0.0,99,0.00,,,0.00,Rainwise IP-100,2013-02-24 13:22:00,
2013-02-24 08:28:00,40.4,40.0,29.61,SSW,202,0.0,1.4,98,0.00,,,0.00,Rainwise IP-100,2013-02-24 13:28:00,
2013-02-24 08:33:00,40.8,40.0,29.61,SSW,202,0.0,0.0,97,0.00,,,0.00,Rainwise IP-100,2013-02-24 13:33:00,
2013-02-24 08:38:00,41.2,40.0,29.61,SSW,202,0.0,0.0,96,0.00,,,0.00,Rainwise IP-100,2013-02-24 13:38:00,
2013-02-24 08:43:00,41.6,41.0,29.62,WSW,247,1.9,1.9,95,0.00,,,0.00,Rainwise IP-100,2013-02-24 13:43:00,
2013-02-24 08:48:00,42.0,40.0,29.62,WSW,247,0.0,3.7,93,0.00,,,0.00,Rainwise IP-100,2013-02-24 13:48:00,
2013-02-24 08:53:00,42.4,40.0,29.61,SW,225,2.6,3.7,91,0.00,,,0.00,Rainwise IP-100,2013-02-24 13:53:00,
2013-02-24 08:58:00,42.8,40.0,29.62,SW,225,1.6,4.2,90,0.00,,,0.00,Rainwise IP-100,2013-02-24 13:58:00,
2013-02-24 09:03:00,43.2,40.0,29.62,WSW,247,0.0,3.5,89,0.00,,,0.00,Rainwise IP-100,2013-02-24 14:03:00,
2013-02-24 09:08:00,43.5,40.0,29.62,WSW,247,0.0,4.2,87,0.00,,,0.00,Rainwise IP-100,2013-02-24 14:08:00,
2013-02-24 09:13:00,43.8,40.0,29.63,WSW,247,1.2,4.0,86,0.00,,,0.00,Rainwise IP-100,2013-02-24 14:13:00,
2013-02-24 09:18:00,44.2,40.0,29.63,West,270,0.0,3.5,85,0.00,,,0.00,Rainwise IP-100,2013-02-24 14:18:00,
2013-02-24 09:23:00,44.7,40.0,29.63,SW,225,1.6,4.2,84,0.00,,,0.00,Rainwise IP-100,2013-02-24 14:23:00,
2013-02-24 09:29:00,45.2,40.0,29.63,WSW,247,2.6,3.3,83,0.00,,,0.00,Rainwise IP-100,2013-02-24 14:29:00,
2013-02-24 09:34:00,45.7,40.0,29.63,SSW,202,5.8,5.8,82,0.00,,,0.00,Rainwise IP-100,2013-02-24 14:34:00,
2013-02-24 09:39:00,46.2,40.0,29.63,WSW,247,0.0,6.8,80,0.00,,,0.00,Rainwise IP-100,2013-02-24 14:39:00,
2013-02-24 09:44:00,46.5,40.0,29.63,SW,225,4.9,5.4,79,0.00,,,0.00,Rainwise IP-100,2013-02-24 14:44:00,
2013-02-24 09:49:00,46.9,40.0,29.64,WSW,247,2.3,7.0,78,0.00,,,0.00,Rainwise IP-100,2013-02-24 14:49:00,
2013-02-24 09:54:00,47.2,39.0,29.64,WSW,247,1.2,7.2,76,0.00,,,0.00,Rainwise IP-100,2013-02-24 14:54:00,
2013-02-24 09:59:00,47.2,39.0,29.64,SE,135,0.0,5.1,75,0.00,,,0.00,Rainwise IP-100,2013-02-24 14:59:00,
2013-02-24 10:04:00,46.8,39.0,29.63,SW,225,1.4,4.4,75,0.00,,,0.00,Rainwise IP-100,2013-02-24 15:04:00,
2013-02-24 10:09:00,46.2,38.0,29.63,WSW,247,2.8,6.1,74,0.00,,,0.00,Rainwise IP-100,2013-02-24 15:09:00,
2013-02-24 10:14:00,46.0,38.0,29.63,WSW,247,2.3,5.6,73,0.00,,,0.00,Rainwise IP-100,2013-02-24 15:14:00,
2013-02-24 10:19:00,46.4,37.0,29.64,SSW,202,2.8,4.9,72,0.00,,,0.00,Rainwise IP-100,2013-02-24 15:19:00,
2013-02-24 10:24:00,47.1,38.0,29.64,SW,225,1.9,7.9,71,0.00,,,0.00,Rainwise IP-100,2013-02-24 15:24:00,
2013-02-24 10:30:00,47.6,38.0,29.64,WSW,247,1.9,8.6,70,0.00,,,0.00,Rainwise IP-100,2013-02-24 15:30:00,
2013-02-24 10:35:00,48.1,38.0,29.64,WSW,247,3.7,6.5,68,0.00,,,0.00,Rainwise IP-100,2013-02-24 15:35:00,
2013-02-24 10:40:00,48.6,38.0,29.64,WSW,247,0.0,5.4,66,0.00,,,0.00,Rainwise IP-100,2013-02-24 15:40:00,
2013-02-24 10:45:00,48.9,38.0,29.64,SW,225,5.1,9.3,65,0.00,,,0.00,Rainwise IP-100,2013-02-24 15:45:00,
2013-02-24 10:50:00,49.2,37.0,29.64,NNW,337,0.0,7.5,63,0.00,,,0.00,Rainwise IP-100,2013-02-24 15:50:00,
2013-02-24 10:55:00,49.8,38.0,29.64,NW,315,0.0,5.6,63,0.00,,,0.00,Rainwise IP-100,2013-02-24 15:55:00,
2013-02-24 11:00:00,50.8,39.0,29.64,SW,225,3.5,4.2,63,0.00,,,0.00,Rainwise IP-100,2013-02-24 16:00:00,
2013-02-24 11:05:00,51.4,38.0,29.64,West,270,1.6,8.2,61,0.00,,,0.00,Rainwise IP-100,2013-02-24 16:05:00,
2013-02-24 11:10:00,51.4,38.0,29.65,SW,225,2.1,6.1,61,0.00,,,0.00,Rainwise IP-100,2013-02-24 16:10:00,
2013-02-24 11:15:00,51.2,39.0,29.65,WNW,292,1.6,6.1,62,0.00,,,0.00,Rainwise IP-100,2013-02-24 16:15:00,
2013-02-24 11:20:00,50.8,39.0,29.65,WNW,292,3.5,6.5,62,0.00,,,0.00,Rainwise IP-100,2013-02-24 16:20:00,
2013-02-24 11:25:00,50.6,38.0,29.65,West,270,1.2,6.1,62,0.00,,,0.00,Rainwise IP-100,2013-02-24 16:25:00,
2013-02-24 11:31:00,50.7,38.0,29.65,WSW,247,2.8,5.6,61,0.00,,,0.00,Rainwise IP-100,2013-02-24 16:31:00,
2013-02-24 11:36:00,50.8,38.0,29.64,SW,225,2.1,4.7,60,0.00,,,0.00,Rainwise IP-100,2013-02-24 16:36:00,
2013-02-24 11:41:00,50.9,37.0,29.64,West,270,4.2,7.0,59,0.00,,,0.00,Rainwise IP-100,2013-02-24 16:41:00,
2013-02-24 11:46:00,50.9,37.0,29.65,SW,225,6.1,6.8,58,0.00,,,0.00,Rainwise IP-100,2013-02-24 16:46:00,
2013-02-24 11:51:00,50.5,36.0,29.64,WSW,247,1.4,6.1,56,0.00,,,0.00,Rainwise IP-100,2013-02-24 16:51:00,
2013-02-24 11:56:00,49.9,35.0,29.64,SW,225,0.0,5.1,55,0.00,,,0.00,Rainwise IP-100,2013-02-24 16:56:00,
2013-02-24 12:01:00,49.6,35.0,29.64,WSW,247,2.8,7.7,56,0.00,,,0.00,Rainwise IP-100,2013-02-24 17:01:00,
2013-02-24 12:06:00,49.5,36.0,29.64,WSW,247,1.4,5.8,58,0.00,,,0.00,Rainwise IP-100,2013-02-24 17:06:00,
2013-02-24 12:11:00,49.4,35.0,29.64,WSW,247,1.6,4.2,57,0.00,,,0.00,Rainwise IP-100,2013-02-24 17:11:00,
2013-02-24 12:16:00,49.1,33.0,29.63,South,180,5.6,8.2,55,0.00,,,0.00,Rainwise IP-100,2013-02-24 17:16:00,
2013-02-24 12:21:00,48.7,33.0,29.63,West,270,2.6,5.8,54,0.00,,,0.00,Rainwise IP-100,2013-02-24 17:21:00,
2013-02-24 12:26:00,48.4,32.0,29.63,WSW,247,2.6,7.5,52,0.00,,,0.00,Rainwise IP-100,2013-02-24 17:26:00,
2013-02-24 12:32:00,48.3,32.0,29.63,WSW,247,1.9,7.2,52,0.00,,,0.00,Rainwise IP-100,2013-02-24 17:32:00,
2013-02-24 12:37:00,48.2,32.0,29.62,West,270,2.1,6.5,52,0.00,,,0.00,Rainwise IP-100,2013-02-24 17:37:00,
2013-02-24 12:42:00,48.3,32.0,29.62,WSW,247,1.2,4.9,52,0.00,,,0.00,Rainwise IP-100,2013-02-24 17:42:00,
2013-02-24 12:47:00,48.5,33.0,29.62,WSW,247,1.6,3.7,53,0.00,,,0.00,Rainwise IP-100,2013-02-24 17:47:00,
2013-02-24 12:52:00,48.5,33.0,29.63,West,270,1.2,9.1,53,0.00,,,0.00,Rainwise IP-100,2013-02-24 17:52:00,
2013-02-24 12:57:00,48.3,32.0,29.62,WSW,247,4.7,8.6,53,0.00,,,0.00,Rainwise IP-100,2013-02-24 17:57:00,
2013-02-24 13:02:00,48.2,32.0,29.62,West,270,0.0,8.2,52,0.00,,,0.00,Rainwise IP-100,2013-02-24 18:02:00,
2013-02-24 13:07:00,48.1,32.0,29.62,SSW,202,1.4,7.2,52,0.00,,,0.00,Rainwise IP-100,2013-02-24 18:07:00,
2013-02-24 13:12:00,48.1,32.0,29.62,WSW,247,1.6,5.8,52,0.00,,,0.00,Rainwise IP-100,2013-02-24 18:12:00,
2013-02-24 13:17:00,48.2,31.0,29.62,West,270,1.4,6.5,51,0.00,,,0.00,Rainwise IP-100,2013-02-24 18:17:00,
2013-02-24 13:22:00,48.3,31.0,29.62,West,270,2.6,5.4,51,0.00,,,0.00,Rainwise IP-100,2013-02-24 18:22:00,
2013-02-24 13:27:00,48.4,31.0,29.62,SW,225,3.3,4.9,51,0.00,,,0.00,Rainwise IP-100,2013-02-24 18:27:00,
2013-02-24 13:33:00,48.4,31.0,29.62,SSW,202,0.0,6.8,51,0.00,,,0.00,Rainwise IP-100,2013-02-24 18:33:00,
2013-02-24 13:38:00,48.4,31.0,29.62,WSW,247,2.6,5.8,50,0.00,,,0.00,Rainwise IP-100,2013-02-24 18:38:00,
2013-02-24 13:43:00,48.4,31.0,29.62,West,270,1.2,7.2,49,0.00,,,0.00,Rainwise IP-100,2013-02-24 18:43:00,
2013-02-24 13:48:00,48.4,31.0,29.61,SW,225,2.1,8.2,49,0.00,,,0.00,Rainwise IP-100,2013-02-24 18:48:00,
2013-02-24 13:53:00,48.5,31.0,29.61,WSW,247,2.1,5.1,49,0.00,,,0.00,Rainwise IP-100,2013-02-24 18:53:00,
2013-02-24 13:58:00,48.6,31.0,29.61,SW,225,2.1,3.5,48,0.00,,,0.00,Rainwise IP-100,2013-02-24 18:58:00,
2013-02-24 14:03:00,48.8,31.0,29.61,West,270,1.2,3.0,48,0.00,,,0.00,Rainwise IP-100,2013-02-24 19:03:00,
2013-02-24 14:08:00,49.0,31.0,29.61,West,270,3.0,5.8,48,0.00,,,0.00,Rainwise IP-100,2013-02-24 19:08:00,
2013-02-24 14:13:00,49.0,31.0,29.61,WSW,247,1.2,5.8,48,0.00,,,0.00,Rainwise IP-100,2013-02-24 19:13:00,
2013-02-24 14:18:00,49.0,29.0,29.61,SW,225,0.0,6.1,47,0.00,,,0.00,Rainwise IP-100,2013-02-24 19:18:00,
2013-02-24 14:23:00,49.1,29.0,29.61,WSW,247,1.6,5.4,47,0.00,,,0.00,Rainwise IP-100,2013-02-24 19:23:00,
2013-02-24 14:28:00,49.1,29.0,29.61,SW,225,1.4,4.9,47,0.00,,,0.00,Rainwise IP-100,2013-02-24 19:28:00,
2013-02-24 14:34:00,49.1,29.0,29.61,SSW,202,0.0,7.5,46,0.00,,,0.00,Rainwise IP-100,2013-02-24 19:34:00,
2013-02-24 14:39:00,49.1,29.0,29.61,WSW,247,1.6,6.1,45,0.00,,,0.00,Rainwise IP-100,2013-02-24 19:39:00,
2013-02-24 14:44:00,49.1,29.0,29.61,WSW,247,6.1,6.1,46,0.00,,,0.00,Rainwise IP-100,2013-02-24 19:44:00,
2013-02-24 14:49:00,49.1,29.0,29.61,WSW,247,1.6,5.4,45,0.00,,,0.00,Rainwise IP-100,2013-02-24 19:49:00,
2013-02-24 14:54:00,49.2,29.0,29.61,WSW,247,2.1,5.1,45,0.00,,,0.00,Rainwise IP-100,2013-02-24 19:54:00,
2013-02-24 14:59:00,49.3,29.0,29.61,West,270,3.3,7.7,45,0.00,,,0.00,Rainwise IP-100,2013-02-24 19:59:00,
2013-02-24 15:04:00,49.3,29.0,29.62,WSW,247,2.6,6.8,45,0.00,,,0.00,Rainwise IP-100,2013-02-24 20:04:00,
2013-02-24 15:09:00,49.2,29.0,29.62,WSW,247,4.0,7.5,45,0.00,,,0.00,Rainwise IP-100,2013-02-24 20:09:00,
2013-02-24 15:14:00,49.1,29.0,29.62,WSW,247,1.6,6.3,45,0.00,,,0.00,Rainwise IP-100,2013-02-24 20:14:00,
2013-02-24 15:19:00,49.1,29.0,29.62,WSW,247,1.9,4.2,45,0.00,,,0.00,Rainwise IP-100,2013-02-24 20:19:00,
2013-02-24 15:24:00,49.1,29.0,29.62,WSW,247,1.2,8.2,45,0.00,,,0.00,Rainwise IP-100,2013-02-24 20:24:00,
2013-02-24 15:29:00,49.1,29.0,29.63,SW,225,2.6,4.7,45,0.00,,,0.00,Rainwise IP-100,2013-02-24 20:29:00,
2013-02-24 15:35:00,49.1,29.0,29.63,WSW,247,2.6,5.6,45,0.00,,,0.00,Rainwise IP-100,2013-02-24 20:35:00,
2013-02-24 15:40:00,49.0,28.0,29.63,SW,225,3.7,7.5,44,0.00,,,0.00,Rainwise IP-100,2013-02-24 20:40:00,
2013-02-24 15:45:00,48.8,28.0,29.63,SW,225,1.2,5.8,44,0.00,,,0.00,Rainwise IP-100,2013-02-24 20:45:00,
2013-02-24 15:50:00,48.6,29.0,29.64,SW,225,1.6,7.7,45,0.00,,,0.00,Rainwise IP-100,2013-02-24 20:50:00,
2013-02-24 15:55:00,48.5,29.0,29.64,SW,225,6.1,8.2,46,0.00,,,0.00,Rainwise IP-100,2013-02-24 20:55:00,
2013-02-24 16:00:00,48.4,28.0,29.64,West,270,2.8,9.1,45,0.00,,,0.00,Rainwise IP-100,2013-02-24 21:00:00,
2013-02-24 16:05:00,48.2,28.0,29.64,SSW,202,1.4,8.4,45,0.00,,,0.00,Rainwise IP-100,2013-02-24 21:05:00,
2013-02-24 16:10:00,48.0,28.0,29.65,SW,225,2.1,9.6,45,0.00,,,0.00,Rainwise IP-100,2013-02-24 21:10:00,
2013-02-24 16:15:00,47.9,28.0,29.64,WSW,247,7.5,8.2,45,0.00,,,0.00,Rainwise IP-100,2013-02-24 21:15:00,
2013-02-24 16:20:00,47.8,28.0,29.65,WSW,247,3.3,7.5,44,0.00,,,0.00,Rainwise IP-100,2013-02-24 21:20:00,
2013-02-24 16:25:00,47.7,28.0,29.65,West,270,2.1,8.9,44,0.00,,,0.00,Rainwise IP-100,2013-02-24 21:25:00,
2013-02-24 16:31:00,47.5,28.0,29.65,WSW,247,1.9,7.7,45,0.00,,,0.00,Rainwise IP-100,2013-02-24 21:31:00,
2013-02-24 16:36:00,47.4,28.0,29.66,WSW,247,5.6,7.9,45,0.00,,,0.00,Rainwise IP-100,2013-02-24 21:36:00,
2013-02-24 16:41:00,47.0,28.0,29.67,West,270,0.0,7.2,47,0.00,,,0.00,Rainwise IP-100,2013-02-24 21:41:00,
2013-02-24 16:46:00,46.5,28.0,29.67,WSW,247,1.6,7.5,48,0.00,,,0.00,Rainwise IP-100,2013-02-24 21:46:00,
2013-02-24 16:51:00,45.9,28.0,29.67,SW,225,3.5,8.4,49,0.00,,,0.00,Rainwise IP-100,2013-02-24 21:51:00,
2013-02-24 16:56:00,45.3,28.0,29.68,WSW,247,1.6,7.9,50,0.00,,,0.00,Rainwise IP-100,2013-02-24 21:56:00,
2013-02-24 17:01:00,44.8,28.0,29.69,SW,225,2.6,6.1,51,0.00,,,0.00,Rainwise IP-100,2013-02-24 22:01:00,
2013-02-24 17:06:00,44.3,28.0,29.69,WSW,247,2.6,10.0,52,0.00,,,0.00,Rainwise IP-100,2013-02-24 22:06:00,
2013-02-24 17:11:00,43.7,28.0,29.70,WSW,247,1.4,8.4,52,0.00,,,0.00,Rainwise IP-100,2013-02-24 22:11:00,
2013-02-24 17:16:00,43.1,28.0,29.70,WSW,247,2.3,8.9,53,0.00,,,0.00,Rainwise IP-100,2013-02-24 22:16:00,
2013-02-24 17:21:00,42.4,28.0,29.70,WSW,247,2.8,9.1,54,0.00,,,0.00,Rainwise IP-100,2013-02-24 22:21:00,
2013-02-24 17:26:00,42.0,28.0,29.70,WSW,247,2.8,8.9,55,0.00,,,0.00,Rainwise IP-100,2013-02-24 22:26:00,
2013-02-24 17:32:00,41.6,28.0,29.70,WSW,247,1.9,10.3,55,0.00,,,0.00,Rainwise IP-100,2013-02-24 22:32:00,
2013-02-24 17:37:00,41.2,28.0,29.71,WSW,247,3.3,11.0,56,0.00,,,0.00,Rainwise IP-100,2013-02-24 22:37:00,
2013-02-24 17:42:00,40.8,28.0,29.71,WSW,247,2.6,7.2,56,0.00,,,0.00,Rainwise IP-100,2013-02-24 22:42:00,
2013-02-24 17:47:00,40.6,28.0,29.72,WSW,247,3.7,4.7,57,0.00,,,0.00,Rainwise IP-100,2013-02-24 22:47:00,
2013-02-24 17:52:00,40.3,26.0,29.72,SW,225,3.0,8.4,57,0.00,,,0.00,Rainwise IP-100,2013-02-24 22:52:00,
2013-02-24 17:57:00,40.1,26.0,29.72,WSW,247,4.7,7.2,57,0.00,,,0.00,Rainwise IP-100,2013-02-24 22:57:00,
2013-02-24 18:02:00,39.9,26.0,29.73,WSW,247,5.8,6.5,57,0.00,,,0.00,Rainwise IP-100,2013-02-24 23:02:00,
2013-02-24 18:07:00,39.7,28.0,29.73,WSW,247,2.3,7.9,58,0.00,,,0.00,Rainwise IP-100,2013-02-24 23:07:00,
2013-02-24 18:12:00,39.5,26.0,29.73,WSW,247,1.9,8.6,57,0.00,,,0.00,Rainwise IP-100,2013-02-24 23:12:00,
2013-02-24 18:17:00,39.2,26.0,29.74,West,270,2.1,6.3,57,0.00,,,0.00,Rainwise IP-100,2013-02-24 23:17:00,
2013-02-24 18:22:00,38.8,26.0,29.74,WSW,247,2.3,5.8,58,0.00,,,0.00,Rainwise IP-100,2013-02-24 23:22:00,
2013-02-24 18:27:00,38.5,26.0,29.74,WSW,247,4.0,7.9,59,0.00,,,0.00,Rainwise IP-100,2013-02-24 23:27:00,
2013-02-24 18:33:00,38.2,26.0,29.75,WSW,247,2.3,9.1,59,0.00,,,0.00,Rainwise IP-100,2013-02-24 23:33:00,
2013-02-24 18:38:00,37.9,26.0,29.74,WSW,247,2.8,8.6,60,0.00,,,0.00,Rainwise IP-100,2013-02-24 23:38:00,
2013-02-24 18:43:00,37.6,26.0,29.75,WSW,247,2.8,9.1,60,0.00,,,0.00,Rainwise IP-100,2013-02-24 23:43:00,
2013-02-24 18:48:00,37.4,24.0,29.75,West,270,2.3,8.6,61,0.00,,,0.00,Rainwise IP-100,2013-02-24 23:48:00,
2013-02-24 18:53:00,37.3,24.0,29.76,WNW,292,0.0,6.1,61,0.00,,,0.00,Rainwise IP-100,2013-02-24 23:53:00,
2013-02-24 18:58:00,37.1,24.0,29.76,NW,315,3.3,5.8,61,0.00,,,0.00,Rainwise IP-100,2013-02-24 23:58:00,
2013-02-24 19:03:00,36.9,26.0,29.77,WSW,247,1.6,7.5,62,0.00,,,0.00,Rainwise IP-100,2013-02-25 00:03:00,
2013-02-24 19:08:00,36.6,26.0,29.78,WSW,247,1.4,7.5,62,0.00,,,0.00,Rainwise IP-100,2013-02-25 00:08:00,
2013-02-24 19:13:00,36.5,26.0,29.78,NNE,22,1.2,4.9,63,0.00,,,0.00,Rainwise IP-100,2013-02-25 00:13:00,
2013-02-24 19:18:00,36.3,24.0,29.79,West,270,0.0,6.5,64,0.00,,,0.00,Rainwise IP-100,2013-02-25 00:18:00,
2013-02-24 19:23:00,36.2,24.0,29.79,West,270,0.0,1.2,64,0.00,,,0.00,Rainwise IP-100,2013-02-25 00:23:00,
2013-02-24 19:29:00,35.9,26.0,29.79,West,270,1.4,2.1,65,0.00,,,0.00,Rainwise IP-100,2013-02-25 00:29:00,
2013-02-24 19:34:00,35.7,26.0,29.80,SW,225,5.1,5.1,65,0.00,,,0.00,Rainwise IP-100,2013-02-25 00:34:00,
2013-02-24 19:39:00,35.6,26.0,29.80,WSW,247,1.2,5.1,65,0.00,,,0.00,Rainwise IP-100,2013-02-25 00:39:00,
2013-02-24 19:44:00,35.6,26.0,29.80,WSW,247,0.0,6.8,65,0.00,,,0.00,Rainwise IP-100,2013-02-25 00:44:00,
2013-02-24 19:49:00,35.6,26.0,29.81,WNW,292,1.2,6.8,65,0.00,,,0.00,Rainwise IP-100,2013-02-25 00:49:00,
2013-02-24 19:54:00,35.5,26.0,29.80,WSW,247,3.0,7.2,65,0.00,,,0.00,Rainwise IP-100,2013-02-25 00:54:00,
2013-02-24 19:59:00,35.4,24.0,29.80,WSW,247,1.6,6.3,64,0.00,,,0.00,Rainwise IP-100,2013-02-25 00:59:00,
2013-02-24 20:05:00,35.3,24.0,29.81,SW,225,1.4,11.7,64,0.00,,,0.00,Rainwise IP-100,2013-02-25 01:05:00,
2013-02-24 20:10:00,35.3,24.0,29.82,South,180,4.7,6.8,64,0.00,,,0.00,Rainwise IP-100,2013-02-25 01:10:00,
2013-02-24 20:15:00,35.3,24.0,29.82,West,270,1.6,8.6,63,0.00,,,0.00,Rainwise IP-100,2013-02-25 01:15:00,
2013-02-24 20:20:00,35.3,23.0,29.82,West,270,4.2,5.8,62,0.00,,,0.00,Rainwise IP-100,2013-02-25 01:20:00,
2013-02-24 20:25:00,35.3,23.0,29.83,WSW,247,4.0,6.1,62,0.00,,,0.00,Rainwise IP-100,2013-02-25 01:25:00,
2013-02-24 20:30:00,35.2,23.0,29.82,WSW,247,3.7,5.6,62,0.00,,,0.00,Rainwise IP-100,2013-02-25 01:30:00,
2013-02-24 20:36:00,35.1,23.0,29.83,WSW,247,0.0,7.7,62,0.00,,,0.00,Rainwise IP-100,2013-02-25 01:36:00,
2013-02-24 20:41:00,35.1,23.0,29.83,SW,225,2.1,7.9,61,0.00,,,0.00,Rainwise IP-100,2013-02-25 01:41:00,
2013-02-24 20:46:00,35.0,23.0,29.84,West,270,1.6,6.1,60,0.00,,,0.00,Rainwise IP-100,2013-02-25 01:46:00,
2013-02-24 20:51:00,34.9,23.0,29.83,WSW,247,1.6,4.9,60,0.00,,,0.00,Rainwise IP-100,2013-02-25 01:51:00,
2013-02-24 20:56:00,34.8,23.0,29.83,WSW,247,1.6,5.4,60,0.00,,,0.00,Rainwise IP-100,2013-02-25 01:56:00,
2013-02-24 21:01:00,34.7,23.0,29.84,WSW,247,1.2,5.1,60,0.00,,,0.00,Rainwise IP-100,2013-02-25 02:01:00,
2013-02-24 21:06:00,34.7,23.0,29.84,SSW,202,1.4,4.9,60,0.00,,,0.00,Rainwise IP-100,2013-02-25 02:06:00,
2013-02-24 21:11:00,34.6,23.0,29.84,SE,135,0.0,2.3,60,0.00,,,0.00,Rainwise IP-100,2013-02-25 02:11:00,
2013-02-24 21:16:00,34.4,23.0,29.84,WSW,247,0.0,3.0,61,0.00,,,0.00,Rainwise IP-100,2013-02-25 02:16:00,
2013-02-24 21:21:00,34.2,23.0,29.85,WSW,247,1.4,6.5,61,0.00,,,0.00,Rainwise IP-100,2013-02-25 02:21:00,
2013-02-24 21:26:00,34.1,23.0,29.85,SW,225,1.4,3.3,61,0.00,,,0.00,Rainwise IP-100,2013-02-25 02:26:00,
2013-02-24 21:31:00,33.9,23.0,29.84,WSW,247,2.6,3.7,61,0.00,,,0.00,Rainwise IP-100,2013-02-25 02:31:00,
2013-02-24 21:37:00,33.8,23.0,29.85,WSW,247,1.4,4.4,60,0.00,,,0.00,Rainwise IP-100,2013-02-25 02:37:00,
2013-02-24 21:42:00,33.8,23.0,29.85,SW,225,2.8,2.8,60,0.00,,,0.00,Rainwise IP-100,2013-02-25 02:42:00,
2013-02-24 21:47:00,33.7,23.0,29.85,WNW,292,3.3,4.7,59,0.00,,,0.00,Rainwise IP-100,2013-02-25 02:47:00,
2013-02-24 21:52:00,33.7,23.0,29.84,WSW,247,0.0,4.0,59,0.00,,,0.00,Rainwise IP-100,2013-02-25 02:52:00,
2013-02-24 21:57:00,33.5,23.0,29.86,SSW,202,1.9,6.3,60,0.00,,,0.00,Rainwise IP-100,2013-02-25 02:57:00,
2013-02-24 22:02:00,33.4,21.0,29.86,WSW,247,0.0,2.1,60,0.00,,,0.00,Rainwise IP-100,2013-02-25 03:02:00,
2013-02-24 22:07:00,33.3,21.0,29.86,WSW,247,1.4,2.1,59,0.00,,,0.00,Rainwise IP-100,2013-02-25 03:07:00,
2013-02-24 22:12:00,33.2,21.0,29.85,WSW,247,0.0,3.3,59,0.00,,,0.00,Rainwise IP-100,2013-02-25 03:12:00,
2013-02-24 22:17:00,33.0,21.0,29.85,West,270,1.6,5.8,60,0.00,,,0.00,Rainwise IP-100,2013-02-25 03:17:00,
2013-02-24 22:22:00,33.0,21.0,29.85,WSW,247,2.1,5.1,59,0.00,,,0.00,Rainwise IP-100,2013-02-25 03:22:00,
2013-02-24 22:27:00,33.0,21.0,29.86,SW,225,0.0,4.2,59,0.00,,,0.00,Rainwise IP-100,2013-02-25 03:27:00,
2013-02-24 22:32:00,33.0,21.0,29.85,SW,225,0.0,3.5,59,0.00,,,0.00,Rainwise IP-100,2013-02-25 03:32:00,
2013-02-24 22:38:00,32.9,21.0,29.85,WSW,247,3.3,3.7,59,0.00,,,0.00,Rainwise IP-100,2013-02-25 03:38:00,
2013-02-24 22:43:00,32.9,21.0,29.84,WSW,247,3.3,4.7,60,0.00,,,0.00,Rainwise IP-100,2013-02-25 03:43:00,
2013-02-24 22:48:00,32.9,21.0,29.85,WSW,247,1.4,5.1,60,0.00,,,0.00,Rainwise IP-100,2013-02-25 03:48:00,
2013-02-24 22:53:00,32.9,21.0,29.85,SW,225,0.0,4.2,59,0.00,,,0.00,Rainwise IP-100,2013-02-25 03:53:00,
2013-02-24 22:58:00,32.8,21.0,29.85,WSW,247,0.0,3.0,60,0.00,,,0.00,Rainwise IP-100,2013-02-25 03:58:00,
2013-02-24 23:03:00,32.8,21.0,29.84,WSW,247,1.2,5.8,60,0.00,,,0.00,Rainwise IP-100,2013-02-25 04:03:00,
2013-02-24 23:08:00,32.8,21.0,29.85,WSW,247,0.0,3.3,59,0.00,,,0.00,Rainwise IP-100,2013-02-25 04:08:00,
2013-02-24 23:13:00,32.7,21.0,29.85,SSW,202,1.4,2.3,59,0.00,,,0.00,Rainwise IP-100,2013-02-25 04:13:00,
2013-02-24 23:18:00,32.6,21.0,29.86,West,270,1.6,3.0,59,0.00,,,0.00,Rainwise IP-100,2013-02-25 04:18:00,
2013-02-24 23:23:00,32.5,21.0,29.86,WSW,247,4.0,4.0,59,0.00,,,0.00,Rainwise IP-100,2013-02-25 04:23:00,
2013-02-24 23:28:00,32.5,21.0,29.85,SW,225,0.0,4.4,59,0.00,,,0.00,Rainwise IP-100,2013-02-25 04:28:00,
2013-02-24 23:33:00,32.5,21.0,29.85,WSW,247,0.0,4.4,60,0.00,,,0.00,Rainwise IP-100,2013-02-25 04:33:00,
2013-02-24 23:39:00,32.4,21.0,29.86,WSW,247,0.0,4.4,60,0.00,,,0.00,Rainwise IP-100,2013-02-25 04:39:00,
2013-02-24 23:45:00,32.3,21.0,29.85,WSW,247,0.0,2.6,60,0.00,,,0.00,Rainwise IP-100,2013-02-25 04:45:00,
2013-02-24 23:50:00,32.2,21.0,29.86,WSW,247,1.2,3.3,60,0.00,,,0.00,Rainwise IP-100,2013-02-25 04:50:00,
2013-02-24 23:55:00,32.0,21.0,29.86,WSW,247,1.6,1.6,60,0.00,,,0.00,Rainwise IP-100,2013-02-25 04:55:00,